Weather History for Le Luc, France

Change the Weather History Date:

Monday, October 29, 2012

  Actual Average (LFTH) Record (LFTH)
Temperature  
Mean Temperature 50 °F -  
Max Temperature 62 °F 60 °F 77 °F (2006)
Min Temperature 35 °F 47 °F 41 °F (2012)
Degree Days  
Heating Degree Days 16    
Moisture  
Dew Point 29 °F    
Average Humidity 58    
Maximum Humidity 93    
Minimum Humidity 31    
Precipitation  
Precipitation 0.00 in - - ()
Sea Level Pressure  
Sea Level Pressure 29.78 in    
Wind  
Wind Speed 4 mph ()    
Max Wind Speed 9 mph    
Max Gust Speed -    
Visibility 6.2 miles    
Events      
Averages and records for this station are not official NWS values.
T = Trace of Precipitation, MM = Missing Value Source: Averaged Metar Reports

Daily Weather History Graph

Daily Weather History Graph

Search for Another Location

Airport:

Trip Planner

Search our weather history database for the weather conditions in past years. The results will help you decide how hot, cold, wet, or windy it might be!

Date:

Astronomy

Oct. 29, 2012 Rise Set
Actual Time 7:06 AM CET 5:29 PM CET
Civil Twilight 6:36 AM CET 5:59 PM CET
Nautical Twilight 6:02 AM CET 6:32 PM CET
Astronomical Twilight 5:29 AM CET 7:05 PM CET
Moon 5:11 PM CET (10/29) 6:41 AM CET (10/29)
Length of Visible Light 11h 22m
Length of Day
10h 23m
Full, 100% of the Moon is Illuminated
Oct 29
Full
Oct 29
Full
Nov 7
Last Quarter
Nov 13
New
Nov 20
First Quarter

Hourly Weather History & Observations

Time (CET) Temp. Windchill Dew Point Humidity Pressure Visibility Wind Dir Wind Speed Gust Speed Precip Events Conditions
12:00 AM 42.8 °F 37.5 °F 23.0 °F 46% 29.65 in 6.2 mi SW 9.2 mph - N/A   Unknown
12:30 AM 42.8 °F 39.3 °F 23.0 °F 46% 29.68 in 6.2 mi SW 5.8 mph - N/A   Unknown
1:00 AM 41.0 °F 38.0 °F 23.0 °F 49% 29.68 in 6.2 mi SW 4.6 mph - N/A   Unknown
1:30 AM 41.0 °F 38.0 °F 24.8 °F 53% 29.68 in 6.2 mi SSW 4.6 mph - N/A   Unknown
2:00 AM 41.0 °F 37.1 °F 23.0 °F 49% 29.71 in 6.2 mi SW 5.8 mph - N/A   Unknown
2:30 AM 41.0 °F 38.0 °F 24.8 °F 53% 29.71 in 6.2 mi SSW 4.6 mph - N/A   Unknown
3:00 AM 41.0 °F 38.0 °F 24.8 °F 53% 29.71 in 6.2 mi SSW 4.6 mph - N/A   Unknown
3:30 AM 39.2 °F 35.0 °F 24.8 °F 56% 29.71 in 6.2 mi SSW 5.8 mph - N/A   Unknown
4:00 AM 39.2 °F 33.6 °F 24.8 °F 56% 29.71 in 6.2 mi WSW 8.1 mph - N/A   Unknown
4:30 AM 39.2 °F 35.0 °F 24.8 °F 56% 29.71 in 6.2 mi SW 5.8 mph - N/A   Unknown
5:00 AM 39.2 °F 33.6 °F 24.8 °F 56% 29.71 in 6.2 mi WSW 8.1 mph - N/A   Unknown
5:30 AM 39.2 °F 34.2 °F 24.8 °F 56% 29.74 in 6.2 mi SW 6.9 mph - N/A   Unknown
6:00 AM 39.2 °F 35.0 °F 24.8 °F 56% 29.74 in 6.2 mi SW 5.8 mph - N/A   Unknown
6:30 AM 39.2 °F 35.0 °F 24.8 °F 56% 29.74 in 6.2 mi SSW 5.8 mph - N/A   Unknown
7:00 AM 39.2 °F 35.9 °F 24.8 °F 56% 29.74 in 6.2 mi SW 4.6 mph - N/A   Partly Cloudy
8:00 AM 39.2 °F 35.9 °F 26.6 °F 61% 29.77 in 6.2 mi WSW 4.6 mph - N/A   Partly Cloudy
9:00 AM 44.6 °F 40.2 °F 24.8 °F 46% 29.80 in - WSW 8.1 mph - N/A   Clear
10:00 AM 48.2 °F - 26.6 °F 43% 29.80 in - Variable 3.5 mph - N/A   Clear
11:00 AM 51.8 °F - 26.6 °F 38% 29.80 in - Variable 3.5 mph - N/A   Clear
12:00 PM 55.4 °F - 28.4 °F 36% 29.80 in - Variable 2.3 mph - N/A   Clear
1:00 PM 59.0 °F - 28.4 °F 31% 29.80 in - Calm Calm - N/A   Clear
2:00 PM 59.0 °F - 30.2 °F 34% 29.80 in - Variable 1.2 mph - N/A   Clear
3:00 PM 62.6 °F - 32.0 °F 32% 29.77 in - Variable 2.3 mph - N/A   Clear
4:00 PM 59.0 °F - 35.6 °F 42% 29.80 in - ESE 8.1 mph - N/A   Clear
5:00 PM 57.2 °F - 35.6 °F 44% 29.80 in - SSE 3.5 mph - N/A   Clear
6:00 PM 51.8 °F - 33.8 °F 50% 29.80 in - Variable 1.2 mph - N/A   Clear
7:00 PM 46.4 °F - 37.4 °F 71% 29.83 in - Calm Calm - N/A   Clear
7:30 PM 44.6 °F - 37.4 °F 76% 29.83 in 6.2 mi Calm Calm - N/A   Unknown
8:00 PM 42.8 °F - 37.4 °F 81% 29.83 in 6.2 mi Variable 2.3 mph - N/A   Unknown
8:30 PM 42.8 °F - 35.6 °F 76% 29.86 in 6.2 mi Variable 1.2 mph - N/A   Unknown
9:00 PM 42.8 °F 41.1 °F 35.6 °F 76% 29.86 in 6.2 mi South 3.5 mph - N/A   Unknown
9:30 PM 39.2 °F - 35.6 °F 87% 29.89 in 6.2 mi NW 1.2 mph - N/A   Unknown
10:00 PM 39.2 °F - 35.6 °F 87% 29.89 in 6.2 mi Calm Calm - N/A   Unknown
10:30 PM 37.4 °F - 33.8 °F 87% 29.89 in 6.2 mi Calm Calm - N/A   Unknown
11:00 PM 37.4 °F - 35.6 °F 93% 29.89 in 6.2 mi Calm Calm - N/A   Unknown
11:30 PM 35.6 °F - 33.8 °F 93% 29.89 in 6.2 mi Calm Calm - N/A   Unknown